Theta_e
305 307 307 306 306 307 306 308 305 308 310 321 328 330 329 331 333 334 334 336 338 337 339 341 340 340 340 343 343 345 348 350 353 356 358 360 360 361 361 361 360 362 361 361
303 304 307 306 307 307 308 308 309 310 315 328 332 332 331 330 329 329 333 334 335 338 340 342 342 339 339 340 341 343 344 345 348 353 353 354 355 356 358 359 360 361 360 360
300 304 304 303 308 310 311 314 315 308 321 329 327 327 327 325 326 326 326 327 325 325 325 329 335 339 337 337 343 345 343 344 346 349 347 350 351 353 352 354 356 357 359 360
302 303 295 306 312 311 313 316 318 319 322 327 326 325 327 326 325 323 324 324 324 323 323 322 324 327 330 331 333 336 340 341 345 345 337 336 345 349 352 352 354 355 355 354
298 298 301 304 309 308 307 312 318 321 324 324 325 325 320 324 327 326 326 323 321 319 319 320 320 323 324 325 326 328 329 334 339 338 331 332 334 338 343 348 348 348 345 342
299 296 293 304 308 310 311 306 321 323 323 322 324 319 317 324 324 323 322 320 319 320 317 315 315 317 317 319 322 324 328 333 336 337 337 336 335 338 341 342 342 337 331 327
300 298 302 307 308 311 301 304 315 323 323 323 321 325 324 321 320 320 320 318 319 318 316 315 315 316 315 316 316 320 325 327 329 332 333 334 335 338 339 337 337 335 331 328
300 297 294 310 309 306 311 315 316 322 324 322 320 323 325 324 326 323 318 315 316 317 315 317 318 318 318 318 321 322 324 324 325 328 329 329 330 330 332 333 331 331 330 327
303 303 310 311 311 314 316 316 316 320 324 325 322 322 323 322 323 323 324 323 323 319 318 321 321 322 320 320 321 322 322 323 323 325 326 328 327 327 326 327 326 326 323 324
305 308 309 310 313 314 316 317 320 321 324 325 322 322 321 321 321 321 320 319 319 318 317 316 318 318 319 318 319 319 319 319 320 320 321 323 322 323 324 325 323 323 319 317
305 310 311 311 312 314 315 317 319 322 322 323 322 322 321 320 319 318 318 317 318 316 316 316 316 316 316 316 317 316 315 315 316 315 317 316 313 311 313 306 305 318 316 316
303 311 310 312 313 313 313 315 317 318 319 322 323 321 321 319 317 314 316 316 316 315 315 315 315 314 314 315 315 314 313 312 311 312 312 313 310 307 297 298 296 294 294 300
310 314 312 314 314 314 314 313 316 317 319 320 322 321 319 317 315 313 311 312 313 314 315 314 314 313 313 314 313 312 313 310 308 308 310 309 309 308 304 298 296 294 293 293
315 314 312 313 313 315 314 315 313 318 319 320 321 320 318 316 313 312 309 309 312 312 312 312 312 311 312 312 311 310 310 301 308 308 308 308 309 309 310 308 307 304 295 296
313 315 314 315 314 314 315 314 313 314 316 318 320 320 320 319 318 317 317 315 313 311 311 312 311 311 313 311 310 309 307 306 308 307 307 305 307 307 307 307 307 306 305 297
312 312 311 310 310 310 311 312 312 313 315 316 317 319 322 322 321 320 320 317 312 309 311 311 311 313 312 311 310 307 306 302 306 305 304 305 305 305 305 305 306 306 304 302
308 307 308 307 308 309 310 313 313 313 315 315 317 319 319 320 320 320 318 316 314 313 312 311 311 314 313 311 309 306 305 303 303 306 305 306 306 305 305 305 304 304 303 296
311 311 311 310 312 312 311 313 314 314 313 315 317 317 318 318 318 318 318 317 316 315 315 314 313 312 312 311 309 307 306 304 304 304 304 304 304 305 304 304 304 303 303 299
312 310 310 311 312 312 313 313 314 315 317 316 314 314 316 317 318 318 317 316 315 314 315 316 312 311 311 310 309 307 305 305 304 304 305 299 302 303 304 304 303 304 305 305
311 312 312 313 314 312 312 314 314 314 317 318 317 314 315 316 317 316 316 315 316 315 317 316 314 313 312 311 308 307 305 304 304 304 304 303 303 303 303 297 304 303 304 305
312 312 312 313 312 313 313 315 315 314 315 316 315 314 315 316 316 317 316 314 316 317 317 314 314 313 312 310 308 305 305 304 304 304 304 303 303 303 303 303 303 303 304 306
313 313 313 313 314 314 315 316 314 314 313 313 312 314 314 314 316 316 318 316 316 311 316 315 314 313 311 310 306 305 305 304 304 304 304 304 304 303 303 303 303 304 304 306
315 315 315 314 312 312 311 312 311 309 309 309 309 310 310 310 310 309 308 316 317 314 317 316 312 309 309 310 307 305 306 305 304 304 305 305 305 304 304 304 304 304 304 305
316 315 313 311 310 307 306 308 309 310 310 311 310 310 309 308 308 310 311 309 307 308 315 315 312 308 307 311 310 309 309 304 303 302 303 300 306 306 305 305 304 304 305 302
313 311 310 308 306 305 308 308 308 309 309 308 308 307 306 308 307 308 309 309 307 308 312 310 309 308 311 311 310 306 306 303 302 303 304 306 306 307 307 307 307 306 306 305
309 307 307 308 307 307 307 308 306 307 307 306 308 309 309 312 311 308 308 307 309 307 311 313 314 313 312 310 307 306 305 302 301 302 303 305 306 307 307 308 309 309 308 307
307 304 307 307 308 307 308 307 308 306 307 307 306 308 310 310 308 307 304 307 307 306 308 311 312 312 312 311 309 308 308 304 301 302 303 304 305 306 308 309 309 310 310 309
Wind_Speed
5 6 4 8 15 15 15 18 13 7 11 10 11 11 12 10 9 12 12 14 14 13 15 13 12 11 7 5 5 4 3 4 5 5 6 7 7 8 7 7 8 8 8 8
6 4 4 9 4 5 4 5 7 8 7 5 9 9 10 10 10 9 13 10 9 8 12 13 12 11 9 8 6 8 9 5 4 7 5 6 6 7 6 6 6 5 7 8
8 0 7 11 7 5 2 1 7 10 9 9 11 9 10 10 9 9 9 11 11 10 9 8 7 10 9 6 5 6 6 5 5 3 4 5 6 6 5 5 4 4 3 5
3 4 11 10 4 4 5 4 3 3 3 6 10 12 10 9 11 10 10 9 10 9 9 8 8 9 9 7 8 7 7 7 5 6 5 4 2 6 5 5 4 4 3 8
6 10 6 5 8 8 8 6 6 2 7 11 13 14 8 9 9 12 12 11 10 10 10 9 9 8 9 9 9 8 7 8 8 7 6 3 3 3 1 3 4 7 10 9
8 3 7 7 5 7 7 4 9 4 6 9 13 9 7 12 13 13 12 11 12 12 11 10 8 9 10 9 7 7 5 9 7 6 7 7 6 4 4 6 7 8 9 9
4 6 9 5 6 3 7 6 10 4 4 7 10 7 22 15 13 12 12 13 11 9 10 9 8 8 9 7 6 4 6 8 8 6 7 6 6 6 6 7 8 8 9 10
3 5 4 9 2 5 7 6 9 2 1 5 8 11 17 17 17 18 16 12 11 10 8 7 6 6 6 6 7 4 4 6 7 5 4 6 6 6 6 6 7 7 7 7
5 6 5 6 8 6 8 8 6 7 2 5 8 12 15 14 14 14 15 11 11 9 8 7 7 6 7 6 5 6 6 6 6 6 5 5 6 6 7 5 4 5 3 3
4 7 5 4 4 7 9 9 7 2 4 7 11 14 14 13 13 12 11 10 9 10 8 7 6 7 7 6 5 5 5 5 5 5 5 3 4 3 3 2 4 2 4 3
4 3 3 5 5 5 7 8 8 5 5 8 12 14 14 13 13 12 10 9 8 7 7 8 6 6 6 5 5 5 5 4 4 5 4 6 8 9 7 9 9 2 4 4
2 7 4 7 3 3 4 6 6 5 5 7 11 13 14 13 12 9 11 8 8 7 7 7 6 6 5 4 4 5 6 5 3 4 4 5 7 8 16 12 13 13 14 13
0 2 2 4 3 4 1 3 4 3 4 7 9 11 13 12 11 10 8 6 6 7 6 6 6 6 6 5 5 4 3 4 4 3 3 4 4 6 8 7 9 9 9 10
4 4 6 5 4 2 3 1 3 1 3 6 9 11 13 13 12 11 9 7 6 6 5 5 6 6 6 6 4 4 4 5 3 4 3 3 3 3 2 4 5 8 5 4
7 6 1 1 3 1 1 2 4 6 6 7 8 11 13 14 14 13 11 10 9 9 6 7 7 7 7 7 6 6 5 4 3 3 3 2 3 3 3 3 3 3 7 6
8 6 6 5 3 3 4 5 6 7 8 8 9 11 12 12 11 12 12 13 12 12 12 10 10 10 9 8 7 6 5 7 2 5 6 5 5 5 4 4 3 3 4 5
7 7 6 5 6 3 2 2 4 6 7 9 10 9 9 11 9 10 12 12 10 8 9 9 9 9 10 10 9 6 5 7 2 4 4 3 3 3 3 3 3 3 6 7
4 1 2 2 1 3 4 1 3 3 4 6 7 8 10 11 11 10 10 10 10 10 9 9 8 10 10 10 10 7 7 7 7 5 4 4 4 3 3 3 3 4 4 8
6 5 5 4 3 2 0 1 2 2 2 1 5 8 9 9 8 9 9 9 10 10 10 10 12 11 11 10 9 7 7 8 7 6 5 5 5 4 4 3 4 3 2 1
8 6 6 7 6 4 3 1 1 2 2 1 2 5 6 7 7 8 9 12 11 9 10 13 15 13 12 13 14 8 8 8 8 7 7 8 6 5 4 2 1 4 3 1
12 10 9 8 7 5 4 2 1 1 1 4 5 5 6 7 7 7 9 9 10 9 12 13 14 12 13 13 14 11 10 10 10 9 8 8 6 6 5 4 4 3 3 1
12 11 10 8 7 6 3 2 1 1 1 3 4 6 7 9 9 10 11 12 10 8 9 10 11 16 11 19 9 11 11 11 11 10 9 8 8 7 6 5 5 3 3 2
11 10 8 7 5 6 5 2 0 3 3 4 5 6 7 8 9 9 8 8 9 8 9 10 12 19 21 13 10 10 11 14 12 11 9 8 8 7 6 6 5 4 4 3
10 10 10 8 7 5 4 4 4 4 3 3 4 5 7 6 6 7 8 6 6 7 8 10 12 21 21 13 12 11 12 10 10 9 9 7 8 7 6 6 6 6 5 5
12 11 10 9 7 6 7 6 5 4 3 6 6 3 3 2 4 6 6 8 9 7 12 12 12 23 16 12 12 11 11 10 10 10 9 10 8 8 7 7 7 7 6 6
12 8 8 8 6 6 5 5 4 4 4 4 4 3 3 2 3 4 6 6 10 10 10 10 8 12 13 11 11 12 11 10 10 11 8 5 6 6 7 9 8 8 8 8
8 8 8 7 6 5 4 3 3 5 3 4 3 3 3 2 3 4 7 10 11 10 11 9 8 10 9 9 11 12 11 10 12 10 8 8 10 10 9 9 9 9 9 9
Wind_Direction
75 79 158 201 200 200 226 243 267 232 213 145 170 155 166 153 166 159 162 169 169 171 160 179 164 147 145 151 158 95 161 186 190 207 212 207 203 200 209 216 221 221 218 218
115 108 143 131 158 199 228 250 262 270 103 116 127 133 149 147 153 158 161 142 116 145 156 173 161 156 152 163 174 183 188 194 220 197 205 199 190 192 189 207 215 224 228 228
134 135 178 144 37 51 139 171 324 225 54 147 132 149 119 124 123 132 119 111 101 99 94 92 104 139 139 133 146 176 144 166 184 189 198 234 190 188 182 197 198 203 214 232
193 272 209 57 37 1 8 36 344 340 23 155 111 105 114 124 127 121 116 119 111 109 104 95 95 110 123 122 115 121 149 151 159 138 87 15 227 189 170 188 188 186 180 95
276 187 296 161 44 22 357 75 9 51 115 120 128 116 106 128 129 125 116 106 105 99 97 96 92 90 101 103 107 109 118 132 131 131 124 117 137 91 71 142 152 71 50 64
220 227 220 31 10 340 317 161 21 68 157 162 172 194 144 133 127 115 113 115 113 109 104 89 78 85 77 76 75 86 136 122 121 142 134 133 134 125 100 81 104 102 94 90
177 248 103 37 315 323 246 42 346 354 180 178 213 7 128 132 124 123 119 117 113 108 103 105 107 98 89 86 67 56 109 107 102 108 110 116 117 110 127 130 116 114 108 97
266 260 181 1 188 327 2 330 348 14 66 186 79 129 136 144 142 132 128 125 119 116 117 121 124 123 132 113 131 139 100 97 108 104 115 113 105 105 99 111 114 124 138 145
333 42 78 49 54 32 2 342 354 326 152 160 141 140 141 140 134 137 138 139 139 132 123 120 112 125 124 114 112 114 119 123 104 103 105 116 122 130 135 135 145 141 136 108
224 132 115 80 78 33 23 15 5 303 141 142 154 154 150 149 143 142 138 139 140 139 132 108 103 99 100 106 108 114 113 116 119 120 109 103 105 91 81 104 125 118 124 120
244 166 158 135 82 39 34 27 42 57 133 153 158 159 158 155 152 146 144 146 144 132 127 122 122 107 114 127 141 133 132 126 134 124 120 101 57 18 94 52 17 25 32 40
334 79 308 84 78 32 27 34 46 73 120 154 165 166 167 157 151 143 148 148 143 134 129 133 143 135 132 144 163 162 155 163 109 138 144 133 130 100 61 68 68 66 50 36
176 125 110 116 112 44 341 29 59 62 122 159 163 162 169 160 157 143 137 153 149 141 138 161 163 152 154 156 175 184 148 139 127 201 153 152 156 156 136 102 79 86 80 67
174 182 192 183 129 50 23 341 156 103 131 161 156 167 172 167 158 169 166 159 145 136 163 184 186 182 167 169 164 183 136 8 175 148 144 142 136 131 156 177 168 144 134 71
190 206 338 176 233 201 274 283 229 215 178 179 175 186 185 180 182 180 173 175 171 141 201 206 206 193 185 176 185 180 178 169 164 145 116 89 135 138 126 136 129 135 143 193
197 206 214 222 245 248 249 235 247 248 220 198 191 201 200 197 185 180 179 184 180 188 193 193 201 188 191 188 194 189 167 45 269 151 162 164 164 156 146 145 144 112 93 46
190 202 214 235 236 235 250 277 283 272 267 233 214 207 199 199 197 188 188 185 187 191 194 196 202 187 191 190 197 185 163 161 288 185 171 163 147 146 138 138 125 97 93 60
220 144 213 261 218 210 196 260 291 324 284 262 230 205 206 202 203 196 193 189 187 193 188 183 195 182 192 196 202 193 184 174 196 186 159 181 168 161 161 142 127 129 134 136
186 182 185 179 165 155 7 337 10 11 47 172 211 213 213 213 205 194 193 199 204 208 201 191 169 190 191 199 213 213 207 188 191 178 183 111 193 177 163 152 141 137 134 127
175 173 171 180 182 200 167 161 314 333 24 17 162 196 206 215 209 215 216 209 223 240 200 198 179 193 198 184 193 230 210 208 199 191 183 200 178 177 131 26 209 165 166 152
184 181 182 181 186 179 190 162 200 225 0 322 299 284 278 282 269 248 241 238 237 224 227 202 204 195 189 180 181 222 220 208 207 198 179 209 162 200 182 177 176 181 168 167
191 188 192 191 196 187 178 168 105 168 293 303 298 296 288 273 266 262 257 260 262 223 210 212 204 203 194 183 187 203 223 214 215 206 197 200 191 191 191 188 190 189 202 193
191 190 189 190 178 157 151 126 344 320 308 311 304 298 290 294 300 291 275 262 268 238 229 208 204 194 187 179 182 199 192 236 221 214 204 200 202 199 198 200 201 210 216 223
162 156 155 144 148 153 165 120 109 88 54 360 354 330 314 302 305 300 290 277 248 263 254 242 197 186 194 201 193 201 197 203 233 224 215 208 201 208 213 215 206 225 233 197
148 142 147 142 153 148 148 141 146 125 57 40 5 349 301 313 307 314 302 295 285 256 256 223 218 187 196 204 195 193 192 184 183 208 232 215 211 199 219 225 230 237 239 246
144 153 156 170 149 160 148 173 108 72 83 52 41 27 27 20 329 291 338 328 305 292 259 246 227 204 202 194 189 192 188 185 178 190 214 212 233 241 236 237 243 237 236 251
150 164 155 158 165 166 147 121 168 127 123 119 88 50 45 72 88 355 2 351 327 302 269 262 224 217 196 194 183 188 187 185 184 176 181 220 231 236 232 246 250 247 253 250